TimeCDT,TemperatureF,Dew PointF,Humidity,Sea Level PressureIn,VisibilityMPH,Wind Direction,Wind SpeedMPH,Gust SpeedMPH,PrecipitationIn,Events,Conditions,WindDirDegrees,DateUTC
12:15 AM,35.6,28.4,75,30.06,10.0,NW,12.7,20.7,N/A,,Overcast,310,2012-10-06 05:15:00
12:35 AM,35.6,28.4,75,30.06,10.0,WNW,13.8,19.6,N/A,,Overcast,300,2012-10-06 05:35:00
12:55 AM,35.6,28.4,75,30.06,10.0,WNW,10.4,16.1,N/A,,Overcast,300,2012-10-06 05:55:00
1:15 AM,35.6,30.2,81,30.06,10.0,NW,10.4,-,N/A,,Overcast,310,2012-10-06 06:15:00
1:35 AM,35.6,30.2,81,30.06,10.0,NW,12.7,-,N/A,,Overcast,310,2012-10-06 06:35:00
1:55 AM,35.6,30.2,81,30.07,10.0,NW,10.4,17.3,N/A,,Overcast,320,2012-10-06 06:55:00
2:15 AM,35.6,30.2,81,30.07,10.0,NW,16.1,19.6,N/A,,Overcast,320,2012-10-06 07:15:00
2:35 AM,33.8,32.0,93,30.07,7.0,North,9.2,-,N/A,Rain,Light Rain,350,2012-10-06 07:35:00
2:55 AM,33.8,32.0,93,30.08,10.0,NW,13.8,-,N/A,Rain,Light Rain,320,2012-10-06 07:55:00
3:15 AM,32.0,30.2,93,30.08,10.0,NNW,9.2,-,N/A,,Mostly Cloudy,330,2012-10-06 08:15:00
3:35 AM,32.0,30.2,93,30.08,10.0,NNW,15.0,20.7,N/A,,Mostly Cloudy,330,2012-10-06 08:35:00
3:55 AM,32.0,30.2,93,30.09,10.0,NW,11.5,16.1,N/A,,Overcast,320,2012-10-06 08:55:00
4:15 AM,32.0,30.2,93,30.09,10.0,NNW,12.7,20.7,N/A,,Overcast,330,2012-10-06 09:15:00
4:35 AM,32.0,30.2,93,30.10,10.0,NNW,12.7,20.7,N/A,,Overcast,330,2012-10-06 09:35:00
4:55 AM,32.0,30.2,93,30.10,10.0,NW,15.0,-,N/A,,Overcast,320,2012-10-06 09:55:00
5:15 AM,32.0,30.2,93,30.10,10.0,NNW,12.7,-,N/A,,Overcast,330,2012-10-06 10:15:00
5:35 AM,32.0,30.2,93,30.11,10.0,NNW,13.8,19.6,N/A,,Overcast,330,2012-10-06 10:35:00
5:55 AM,32.0,30.2,93,30.12,10.0,NW,11.5,21.9,N/A,,Overcast,320,2012-10-06 10:55:00
6:15 AM,32.0,30.2,93,30.12,10.0,NNW,13.8,-,N/A,,Overcast,330,2012-10-06 11:15:00
6:35 AM,32.0,28.4,87,30.13,10.0,NW,13.8,18.4,N/A,,Overcast,320,2012-10-06 11:35:00
6:55 AM,32.0,28.4,87,30.13,10.0,NW,9.2,-,N/A,,Overcast,320,2012-10-06 11:55:00
7:15 AM,32.0,28.4,87,30.14,10.0,NW,11.5,17.3,N/A,,Overcast,320,2012-10-06 12:15:00
7:35 AM,32.0,28.4,87,30.15,10.0,NNW,10.4,16.1,N/A,,Overcast,330,2012-10-06 12:35:00
7:55 AM,32.0,28.4,87,30.16,10.0,NNW,11.5,-,N/A,,Overcast,330,2012-10-06 12:55:00
8:15 AM,32.0,28.4,87,30.16,10.0,NNW,10.4,-,N/A,,Overcast,330,2012-10-06 13:15:00
8:35 AM,33.8,28.4,81,30.17,10.0,NW,9.2,-,N/A,,Overcast,320,2012-10-06 13:35:00
8:55 AM,33.8,28.4,81,30.18,10.0,NW,11.5,-,N/A,,Overcast,320,2012-10-06 13:55:00
9:15 AM,33.8,28.4,81,30.19,10.0,North,8.1,-,N/A,,Overcast,350,2012-10-06 14:15:00
9:35 AM,33.8,28.4,81,30.19,10.0,North,12.7,18.4,N/A,,Overcast,350,2012-10-06 14:35:00
9:55 AM,35.6,26.6,70,30.20,10.0,NNW,11.5,16.1,N/A,,Overcast,330,2012-10-06 14:55:00
10:15 AM,35.6,26.6,70,30.20,10.0,NNW,12.7,17.3,N/A,,Overcast,340,2012-10-06 15:15:00
10:35 AM,35.6,26.6,70,30.20,10.0,North,10.4,-,N/A,,Overcast,350,2012-10-06 15:35:00
10:55 AM,35.6,24.8,65,30.21,10.0,North,12.7,18.4,N/A,,Overcast,360,2012-10-06 15:55:00
11:15 AM,37.4,24.8,60,30.21,10.0,NNW,10.4,-,N/A,,Overcast,330,2012-10-06 16:15:00
11:35 AM,37.4,24.8,60,30.21,10.0,NNW,13.8,-,N/A,,Overcast,330,2012-10-06 16:35:00
11:55 AM,37.4,24.8,60,30.22,10.0,North,11.5,18.4,N/A,,Overcast,350,2012-10-06 16:55:00
12:15 PM,37.4,23.0,56,30.22,10.0,NNW,12.7,-,N/A,,Overcast,340,2012-10-06 17:15:00
12:35 PM,37.4,23.0,56,30.22,10.0,North,10.4,17.3,N/A,,Overcast,350,2012-10-06 17:35:00
12:55 PM,37.4,23.0,56,30.21,10.0,North,11.5,-,N/A,,Overcast,360,2012-10-06 17:55:00
1:15 PM,39.2,23.0,52,30.21,10.0,NNW,12.7,17.3,N/A,,Overcast,340,2012-10-06 18:15:00
1:35 PM,39.2,21.2,49,30.20,10.0,NNW,9.2,-,N/A,,Overcast,330,2012-10-06 18:35:00
1:55 PM,39.2,23.0,52,30.20,10.0,North,9.2,-,N/A,,Overcast,360,2012-10-06 18:55:00
2:15 PM,39.2,21.2,49,30.20,10.0,North,11.5,-,N/A,,Overcast,360,2012-10-06 19:15:00
2:35 PM,39.2,23.0,52,30.20,10.0,North,8.1,-,N/A,,Overcast,360,2012-10-06 19:35:00
2:55 PM,39.2,21.2,49,30.20,10.0,North,8.1,-,N/A,,Overcast,350,2012-10-06 19:55:00
3:15 PM,39.2,21.2,49,30.20,10.0,North,11.5,17.3,N/A,,Overcast,350,2012-10-06 20:15:00
3:35 PM,39.2,21.2,49,30.20,10.0,NNW,8.1,-,N/A,,Overcast,340,2012-10-06 20:35:00
3:55 PM,39.2,23.0,52,30.19,10.0,NNW,9.2,-,N/A,,Overcast,340,2012-10-06 20:55:00
4:15 PM,39.2,21.2,49,30.19,10.0,North,10.4,-,N/A,,Overcast,350,2012-10-06 21:15:00
4:35 PM,39.2,21.2,49,30.19,10.0,NNW,9.2,-,N/A,,Overcast,340,2012-10-06 21:35:00
4:55 PM,39.2,21.2,49,30.19,10.0,North,8.1,-,N/A,,Overcast,350,2012-10-06 21:55:00
5:15 PM,39.2,21.2,49,30.19,10.0,NNW,10.4,-,N/A,,Overcast,330,2012-10-06 22:15:00
5:35 PM,39.2,21.2,49,30.19,10.0,NNW,10.4,-,N/A,,Overcast,340,2012-10-06 22:35:00
6:15 PM,37.4,21.2,52,30.20,10.0,NNW,6.9,-,N/A,,Overcast,340,2012-10-06 23:15:00
6:35 PM,37.4,19.4,48,30.20,10.0,North,6.9,-,N/A,,Overcast,350,2012-10-06 23:35:00
6:55 PM,37.4,19.4,48,30.20,10.0,NNW,5.8,-,N/A,,Overcast,340,2012-10-06 23:55:00
7:15 PM,35.6,21.2,56,30.20,10.0,NNW,3.5,-,N/A,,Overcast,330,2012-10-07 00:15:00
7:35 PM,35.6,21.2,56,30.20,10.0,Calm,Calm,-,N/A,,Overcast,0,2012-10-07 00:35:00
7:55 PM,35.6,21.2,56,30.20,10.0,West,3.5,-,N/A,,Overcast,260,2012-10-07 00:55:00
8:15 PM,35.6,21.2,56,30.20,10.0,Calm,Calm,-,N/A,,Overcast,0,2012-10-07 01:15:00
8:35 PM,35.6,21.2,56,30.21,10.0,West,3.5,-,N/A,,Overcast,260,2012-10-07 01:35:00
8:55 PM,33.8,23.0,65,30.21,10.0,Calm,Calm,-,N/A,,Overcast,0,2012-10-07 01:55:00
9:15 PM,35.6,21.2,56,30.20,10.0,West,4.6,-,N/A,,Overcast,270,2012-10-07 02:15:00
9:35 PM,35.6,23.0,60,30.20,10.0,WSW,5.8,-,N/A,,Overcast,250,2012-10-07 02:35:00
9:55 PM,35.6,23.0,60,30.20,10.0,West,3.5,-,N/A,,Overcast,260,2012-10-07 02:55:00
10:15 PM,33.8,23.0,65,30.20,10.0,West,5.8,-,N/A,,Overcast,260,2012-10-07 03:15:00
10:35 PM,33.8,23.0,65,30.20,10.0,WSW,3.5,-,N/A,,Overcast,250,2012-10-07 03:35:00
10:55 PM,33.8,23.0,65,30.20,10.0,West,4.6,-,N/A,,Overcast,260,2012-10-07 03:55:00
11:15 PM,33.8,23.0,65,30.20,10.0,WSW,4.6,-,N/A,,Overcast,250,2012-10-07 04:15:00
11:35 PM,33.8,23.0,65,30.20,10.0,West,3.5,-,N/A,,Overcast,260,2012-10-07 04:35:00
11:55 PM,33.8,23.0,65,30.19,10.0,WSW,4.6,-,N/A,,Overcast,250,2012-10-07 04:55:00